When you browse on this site, cookies collect data to enhance your experience and personalize the content and advertising you see.
Visit our Privacy Policy to learn more. By continuing to use the site, you agree to this use of cookies and data.
  • In Hungary
  • List of Countries
  • For 7 days
  • Water Temperature
  • Satellite Maps
  • Weather Map
  • News
  • Weather Widgets
  • user-avatar
    Login

    Hourly Weather Piotrkowiczki

    Today, 22 May, Wednesday

    Time Temperature Precipitation Wind Pressure Humidity
    00:00 +13°C° 0.6 mm 3 mps 737 mmHg 95%
    01:00 +13°C° 0 mm 3 mps 737 mmHg 97%
    02:00 +13°C° 0.7 mm 4 mps 737 mmHg 97%
    03:00 +13°C° 0.7 mm 4 mps 737 mmHg 97%
    04:00 +13°C° 0.7 mm 4 mps 737 mmHg 98%
    05:00 +14°C° 0.5 mm 5 mps 737 mmHg 97%
    06:00 +14°C° 0.5 mm 5 mps 738 mmHg 96%
    07:00 +14°C° 0 mm 4 mps 738 mmHg 95%
    08:00 +15°C° 0.5 mm 5 mps 738 mmHg 94%
    09:00 +15°C° 0.5 mm 6 mps 739 mmHg 93%
    10:00 +15°C° 0.5 mm 6 mps 739 mmHg 92%
    11:00 +15°C° 0.5 mm 7 mps 739 mmHg 92%
    12:00 +15°C° 0.5 mm 7 mps 739 mmHg 92%
    13:00 +15°C° 0.5 mm 7 mps 740 mmHg 92%
    14:00 +14°C° 0.1 mm 7 mps 740 mmHg 91%
    15:00 +14°C° 0.1 mm 7 mps 740 mmHg 91%
    16:00 +14°C° 0.1 mm 7 mps 740 mmHg 91%
    17:00 +14°C° 0.1 mm 7 mps 741 mmHg 92%
    18:00 +12°C° 0.1 mm 7 mps 741 mmHg 92%
    19:00 +12°C° 0.1 mm 7 mps 741 mmHg 93%
    20:00 +12°C° 0.1 mm 7 mps 742 mmHg 93%
    21:00 +11°C° 0.1 mm 7 mps 742 mmHg 93%
    22:00 +11°C° 0.1 mm 7 mps 742 mmHg 93%
    23:00 +11°C° 0.1 mm 7 mps 743 mmHg 93%

    Tomorrow, 23 May, Thursday

    Time Temperature Precipitation Wind Pressure Humidity
    00:00 +10°C° 0.1 mm 7 mps 743 mmHg 93%
    01:00 +10°C° 0.1 mm 7 mps 743 mmHg 93%
    02:00 +10°C° 0.2 mm 7 mps 743 mmHg 94%
    03:00 +10°C° 0.2 mm 7 mps 743 mmHg 94%
    04:00 +9°C° 0.2 mm 7 mps 744 mmHg 94%
    05:00 +9°C° 0.2 mm 7 mps 744 mmHg 94%
    06:00 +9°C° 0.2 mm 6 mps 744 mmHg 94%
    07:00 +9°C° 0.2 mm 6 mps 745 mmHg 93%
    08:00 +9°C° 0.1 mm 6 mps 745 mmHg 92%
    09:00 +9°C° 0.1 mm 6 mps 745 mmHg 91%
    10:00 +9°C° 0.1 mm 6 mps 746 mmHg 90%
    11:00 +10°C° 0 mm 6 mps 746 mmHg 84%
    12:00 +11°C° 0 mm 6 mps 746 mmHg 78%
    13:00 +13°C° 0 mm 6 mps 746 mmHg 73%
    14:00 +14°C° 0 mm 5 mps 746 mmHg 69%
    15:00 +15°C° 0 mm 5 mps 746 mmHg 66%
    16:00 +16°C° 0 mm 5 mps 745 mmHg 63%
    17:00 +15°C° 0 mm 4 mps 746 mmHg 67%
    18:00 +16°C° 0 mm 3 mps 746 mmHg 71%
    19:00 +15°C° 0 mm 2 mps 746 mmHg 75%
    20:00 +14°C° 0 mm 2 mps 746 mmHg 77%
    21:00 +12°C° 0 mm 2 mps 746 mmHg 79%
    22:00 +10°C° 0 mm 3 mps 746 mmHg 81%
    23:00 +9°C° 0 mm 2 mps 746 mmHg 80%

    Day after tomorrow, 24 May, Friday

    Time Temperature Precipitation Wind Pressure Humidity
    00:00 +8°C° 0 mm 2 mps 746 mmHg 79%
    01:00 +7°C° 0 mm 2 mps 746 mmHg 78%
    02:00 +7°C° 0 mm 2 mps 746 mmHg 79%
    03:00 +6°C° 0 mm 2 mps 746 mmHg 80%
    04:00 +6°C° 0 mm 2 mps 746 mmHg 82%
    05:00 +8°C° 0 mm 2 mps 746 mmHg 78%
    06:00 +10°C° 0 mm 2 mps 746 mmHg 73%
    07:00 +12°C° 0 mm 2 mps 746 mmHg 69%
    08:00 +14°C° 0 mm 2 mps 746 mmHg 66%
    09:00 +16°C° 0 mm 2 mps 746 mmHg 62%
    10:00 +17°C° 0 mm 2 mps 746 mmHg 58%
    11:00 +18°C° 0 mm 2 mps 745 mmHg 57%
    12:00 +19°C° 0 mm 2 mps 745 mmHg 55%
    13:00 +20°C° 0 mm 2 mps 745 mmHg 54%
    14:00 +20°C° 0 mm 2 mps 744 mmHg 54%
    15:00 +20°C° 0 mm 2 mps 744 mmHg 55%
    16:00 +20°C° 0 mm 2 mps 743 mmHg 55%
    17:00 +20°C° 0 mm 1 mps 743 mmHg 60%
    18:00 +19°C° 0 mm 1 mps 743 mmHg 66%
    19:00 +16°C° 0 mm 0 mps 743 mmHg 71%
    20:00 +16°C° 0 mm 1 mps 743 mmHg 74%
    21:00 +14°C° 0 mm 1 mps 743 mmHg 76%
    22:00 +13°C° 0 mm 1 mps 743 mmHg 79%
    23:00 +13°C° 0 mm 1 mps 743 mmHg 80%

    25 May, Saturday

    Time Temperature Precipitation Wind Pressure Humidity
    00:00 +12°C° 0 mm 2 mps 743 mmHg 82%
    01:00 +12°C° 0 mm 2 mps 743 mmHg 83%
    02:00 +12°C° 0 mm 2 mps 743 mmHg 83%
    03:00 +12°C° 0 mm 2 mps 743 mmHg 83%
    04:00 +12°C° 0 mm 2 mps 743 mmHg 83%
    05:00 +13°C° 0 mm 2 mps 743 mmHg 82%
    06:00 +13°C° 0 mm 3 mps 743 mmHg 81%
    07:00 +14°C° 0 mm 3 mps 743 mmHg 80%
    08:00 +17°C° 0 mm 3 mps 743 mmHg 74%
    09:00 +18°C° 0 mm 4 mps 744 mmHg 69%
    10:00 +20°C° 0 mm 4 mps 744 mmHg 64%
    11:00 +20°C° 0.3 mm 4 mps 743 mmHg 65%
    12:00 +20°C° 0.3 mm 4 mps 743 mmHg 66%
    13:00 +20°C° 0.3 mm 4 mps 743 mmHg 67%
    14:00 +20°C° 0.1 mm 4 mps 743 mmHg 63%
    15:00 +21°C° 0.1 mm 4 mps 743 mmHg 59%
    16:00 +21°C° 0.1 mm 4 mps 743 mmHg 56%
    17:00 +20°C° 0 mm 3 mps 743 mmHg 61%
    18:00 +18°C° 0 mm 3 mps 743 mmHg 66%
    19:00 +17°C° 0 mm 2 mps 743 mmHg 71%
    20:00 +15°C° 0 mm 2 mps 743 mmHg 77%
    21:00 +13°C° 0 mm 2 mps 743 mmHg 83%
    22:00 +12°C° 0 mm 2 mps 744 mmHg 90%
    23:00 +10°C° 0 mm 2 mps 743 mmHg 91%

    26 May, Sunday

    Time Temperature Precipitation Wind Pressure Humidity
    00:00 +10°C° 0 mm 2 mps 743 mmHg 91%
    01:00 +9°C° 0 mm 2 mps 743 mmHg 92%
    02:00 +9°C° 0 mm 2 mps 743 mmHg 92%
    03:00 +9°C° 0 mm 2 mps 743 mmHg 92%
    04:00 +9°C° 0 mm 3 mps 743 mmHg 92%
    05:00 +10°C° 0 mm 3 mps 743 mmHg 87%
    06:00 +11°C° 0 mm 4 mps 743 mmHg 83%
    07:00 +12°C° 0 mm 5 mps 743 mmHg 78%
    08:00 +13°C° 0 mm 5 mps 743 mmHg 73%
    09:00 +14°C° 0 mm 6 mps 743 mmHg 67%
    10:00 +14°C° 0 mm 6 mps 743 mmHg 61%
    11:00 +14°C° 0 mm 6 mps 743 mmHg 61%
    12:00 +14°C° 0 mm 6 mps 742 mmHg 61%
    13:00 +14°C° 0 mm 6 mps 742 mmHg 60%
    14:00 +15°C° 0 mm 7 mps 742 mmHg 59%
    15:00 +15°C° 0 mm 7 mps 742 mmHg 57%
    16:00 +16°C° 0 mm 8 mps 742 mmHg 55%
    17:00 +15°C° 0 mm 7 mps 742 mmHg 61%
    18:00 +13°C° 0 mm 6 mps 742 mmHg 67%
    19:00 +12°C° 0 mm 5 mps 742 mmHg 72%
    20:00 +11°C° 0 mm 4 mps 743 mmHg 77%
    21:00 +10°C° 0 mm 4 mps 743 mmHg 81%
    22:00 +9°C° 0 mm 3 mps 743 mmHg 86%
    23:00 +8°C° 0 mm 3 mps 743 mmHg 89%

    27 May, Monday

    Time Temperature Precipitation Wind Pressure Humidity
    00:00 +8°C° 0 mm 3 mps 743 mmHg 92%
    01:00 +7°C° 0 mm 3 mps 743 mmHg 95%
    02:00 +7°C° 0 mm 3 mps 743 mmHg 95%
    03:00 +6°C° 0 mm 2 mps 743 mmHg 96%
    04:00 +6°C° 0 mm 2 mps 743 mmHg 96%
    05:00 +8°C° 0 mm 2 mps 743 mmHg 91%
    06:00 +10°C° 0 mm 2 mps 743 mmHg 85%
    07:00 +12°C° 0 mm 2 mps 743 mmHg 80%
    08:00 +14°C° 0 mm 2 mps 743 mmHg 76%
    09:00 +16°C° 0 mm 2 mps 742 mmHg 72%
    10:00 +17°C° 0 mm 3 mps 742 mmHg 68%
    11:00 +19°C° 0 mm 3 mps 742 mmHg 64%
    12:00 +20°C° 0 mm 3 mps 741 mmHg 61%
    13:00 +21°C° 0 mm 3 mps 741 mmHg 58%
    14:00 +22°C° 0 mm 3 mps 740 mmHg 58%
    15:00 +22°C° 0 mm 3 mps 740 mmHg 58%
    16:00 +22°C° 0 mm 3 mps 739 mmHg 58%
    17:00 +21°C° 0.5 mm 3 mps 739 mmHg 66%
    18:00 +20°C° 0.5 mm 2 mps 739 mmHg 74%
    19:00 +18°C° 0.5 mm 2 mps 738 mmHg 82%
    20:00 +17°C° 0.2 mm 2 mps 738 mmHg 84%
    21:00 +16°C° 0.2 mm 2 mps 738 mmHg 87%
    22:00 +15°C° 0.2 mm 1 mps 738 mmHg 89%
    23:00 +14°C° 0.2 mm 1 mps 738 mmHg 90%
    Show more